Regional Weather Roundup
Issued by NWS

Home | Current Version | Previous Version | Text Only | Print | Product List | Glossary Off
Versions: 1 2 3 4 5 6 7 8 9 10 11 12 13 14 15 16 17 18 19 20 21 22 23 24 25 26 27 28 29 30 31 32 33 34 35 36 37 38 39 40 41 42 43 44 45 46 47 48 49 50

000
ASUS43 KFSD 271610
RWRSD

WEATHER ROUNDUP FOR SOUTH DAKOTA
NATIONAL WEATHER SERVICE SIOUX FALLS SD
1100 AM CDT FRI MAY 27 2016

NOTE: "FAIR" INDICATES FEW OR NO CLOUDS BELOW 12,000 FEET WITH NO
SIGNIFICANT WEATHER AND/OR OBSTRUCTIONS TO VISIBILITY.


SDZ001>005-009-010-012>017-271700-
NORTHWEST AND NORTH CENTRAL SOUTH DAKOTA

CITY           SKY/WX    TMP DP  RH WIND       PRES   REMARKS
BUFFALO          N/A     63  45  51 N9        29.78F
FAITH            N/A     65  44  46 N14       29.82R
MOBRIDGE       MOSUNNY   66  50  56 N13       29.80R
$$

SDZ012>016-024>037-041>051-057-063-072>074-271700-
SOUTHWEST AND SOUTH CENTRAL SOUTH DAKOTA

CITY           SKY/WX    TMP DP  RH WIND       PRES   REMARKS
RAPID CTY ARPT CLOUDY    62  47  57 N12       29.85S
PIERRE         CLOUDY    63  52  67 N8        29.81R
CUSTER         CLOUDY    56  37  49 W12       29.90S
ELLSWORTH AFB  CLOUDY    63  45  52 N17       29.84F
PHILIP         CLOUDY    62  47  57 N7        29.84R
PINE RIDGE     CLOUDY    57  44  62 E7        29.87R
WINNER         RAIN      58  55  90 W8        29.85R FOG
$$

SDZ004>011-016>023-039-040-271700-
NORTHEAST SOUTH DAKOTA

CITY           SKY/WX    TMP DP  RH WIND       PRES   REMARKS
ABERDEEN       CLOUDY    68  55  63 N8        29.78S
WATERTOWN      LGT RAIN  61  53  75 NE13G22   29.77R
BROOKINGS      LGT RAIN  62  58  86 S10       29.79F
SISSETON         N/A     75  52  44 NE10      29.75F
$$

SDZ017-020-022-023-036>040-048>070-271700-
SOUTHEAST SOUTH DAKOTA

CITY           SKY/WX    TMP DP  RH WIND       PRES   REMARKS
SIOUX FALLS    CLOUDY    66  58  75 S5        29.78F
HURON          LGT RAIN  63  59  87 S10G20    29.77R
CHAMBERLAIN    RAIN      60  59  98 W12       29.82R
MITCHELL       RAIN      61  60  97 S8        29.79R FOG
YANKTON        CLOUDY    64  57  77 E5        29.75F
$$

ABBREVIATIONS USED IN REMARKS
   TC - TEMPERATURE IN CELSIUS
  WCI - WIND CHILL INDEX
   HX - HEAT INDEX
  VSB - VISIBILITY





USA.gov is the U.S. government's official web portal to all federal, state and local government web resources and services.